[Iaude] MPEC H95: 2024 HU1 [a=1.13,e=0.19,i=19.0,H=26.1]
    mpec at cfa.harvard.edu 
    mpec at cfa.harvard.edu
       
    Mon Apr 29 19:57:41 EDT 2024
    
    
  
M.P.E.C. 2024-H95                                Issued 2024 April 29, 23:56 UT
     The Minor Planet Electronic Circulars contain information on unusual
         minor planets, routine data on comets and natural satellites,
         and occasional editorial announcements.  They are published
    on behalf of Division F of the International Astronomical Union by the
          Minor Planet Center, Smithsonian Astrophysical Observatory,
                          Cambridge, MA 02138, U.S.A.
			  
             Prepared using the Tamkin Foundation Computer Network
                              MPC at CFA.HARVARD.EDU
            URL https://www.minorplanetcenter.net/    ISSN 1523-6714
                                    2024 HU1                                    
Observations:
     K24H01U*1C2024 04 29.38326014 19 35.486+35 36 37.91         18.50GVEH095703
     K24H01U 1C2024 04 29.38783414 19 43.619+35 38 26.23         18.54GVEH095703
     K24H01U 1C2024 04 29.39012414 19 47.633+35 39 21.13         18.45GVEH095703
     K24H01U KB2024 04 29.41508 14 20 26.863+35 47 06.50         18.6 RZEH095H36
     K24H01U KB2024 04 29.41762 14 20 31.498+35 48 04.18         19.0 RZEH095H36
     K24H01U KB2024 04 29.42015 14 20 36.065+35 49 00.77         19.3 RZEH095H36
     K24H01U KC2024 04 29.43160414 21 00.526+35 55 15.89         18.85GVEH095I52
     K24H01U KC2024 04 29.43211514 21 01.422+35 55 27.19         18.64GVEH095I52
     K24H01U KC2024 04 29.43263114 21 02.315+35 55 39.04         18.97GVEH095I52
     K24H01U KC2024 04 29.43314314 21 03.226+35 55 50.41         18.86GVEH095I52
     K24H01U KB2024 04 29.54156 14 25 22.73 +36 35 35.0          18.9 GVEH095P13
     K24H01U KB2024 04 29.54644 14 25 30.65 +36 37 25.3          18.3 GVEH095P13
     K24H01U KB2024 04 29.55306 14 25 41.49 +36 39 56.8          19.4 GVEH095P13
     K24H01U KB2024 04 29.80163314 32 36.727+37 59 27.06         19.5 GXEH095L34
     K24H01U KC2024 04 29.81696 14 32 56.74 +38 03 16.7          19.0 GVEH095104
     K24H01U KC2024 04 29.81696 14 32 55.0  +38 03 08.9          19.0 GqEH095C75
     K24H01U KC2024 04 29.81700 14 32 55.1  +38 03 09.6                qEH095C75
     K24H01U KC2024 04 29.81704 14 32 55.2  +38 03 10.4                qEH095C75
     K24H01U KC2024 04 29.82252 14 32 59.01 +38 05 01.2          18.6 VZEH095M38
     K24H01U KC2024 04 29.82330 14 33 05.58 +38 05 12.4                VEH095104
     K24H01U KC2024 04 29.82964 14 33 14.39 +38 07 08.5                VEH095104
     K24H01U KC2024 04 29.83175 14 33 11.66 +38 07 46.7          18.9 VZEH095M38
     K24H01U KC2024 04 29.83908 14 33 22.27 +38 09 39.4          18.9 GXEH095G02
     K24H01U KC2024 04 29.84295 14 33 27.48 +38 10 47.7          19.4 GXEH095G02
     K24H01U KC2024 04 29.84682 14 33 32.75 +38 11 56.1          19.1 GXEH095G02
     K24H01U KB2024 04 29.89402 14 34 32.14 +38 26 02.6          19.3 GXEH095M45
     K24H01U KB2024 04 29.89868 14 34 38.11 +38 27 19.1          19.0 GXEH095M45
     K24H01U KC2024 04 29.90295914 34 48.53 +38 27 35.2          18.6 GVEH095G34
     K24H01U KB2024 04 29.90323 14 34 43.84 +38 28 33.7          19.0 GXEH095M45
     K24H01U KC2024 04 29.90495014 34 51.12 +38 28 08.5          18.9 GVEH095G34
     K24H01U KC2024 04 29.90694414 34 53.68 +38 28 41.0          18.8 GVEH095G34
     K24H01U KB2024 04 29.91242514 35 02.616+38 32 02.18         19.1 GXEH095L34
     K24H01U KB2024 04 29.91331 14 35 01.46 +38 30 49.0          18.9 GXEH095A71
     K24H01U KB2024 04 29.91660 14 35 05.61 +38 31 42.9          18.8 GXEH095A71
     K24H01U KB2024 04 29.91988 14 35 09.78 +38 32 35.8          18.8 GXEH095A71
Observer details:
104 San Marcello Pistoiese.  Observers P. Bacci, M. Maestripieri.  Measurer P.
    Bacci.  0.60-m f/4.0 reflector + CCD.
703 Catalina Sky Survey.  Observer H. Groeller.  Measurers T. Beuden, V. F.
    Carvajal, D. Fay, J. B. Fazekas, D. C. Fuls, A. R. Gibbs, A. D. Grauer, H.
    Groeller, J. K. Hogan, R. A. Kowalski, S. M. Larson, G. J. Leonard, D.
    Rankin, R. L. Seaman, F. C. Shelly, K. W. Wierzchos.  0.68-m Schmidt + 10K
    CCD.
A71 Stixendorf.  Observers M. Jaeger, E. Prosperi.  Measurer M. Jaeger.
    0.35-m f/4.2 reflector + CMO.
C75 Whitestar Observatory, Borgobello.  Observer T. Gregor.  Measurers V.
    Gonano, T. Gregor.  0.35-m f/5.7 Schmidt-Cassegrain + CCD.
G02 KYSUCE Observatory, Kysucke Nove Mesto.  Observer M. Urbanik.  0.40-m
    f/6.8 Corrected Dall-Kirkham + CCD.
G34 Oberfrauendorf.  Observer T. Felber.  0.35-m f/6.3 Schmidt-Cassegrain +
    CMOS.
H36 Sandlot Observatory, Scranton.  Observer G. Hug.  0.56-m f/4.8 reflector +
    CMO.
I52 Steward Observatory, Mt. Lemmon Station.  Observer R. A. Kowalski.
    Measurers T. Beuden, V. F. Carvajal, D. Fay, J. B. Fazekas, D. C. Fuls, A.
    R. Gibbs, A. D. Grauer, H. Groeller, J. K. Hogan, R. A. Kowalski, S. M.
    Larson, G. J. Leonard, D. Rankin, R. L. Seaman, F. C. Shelly, K. W.
    Wierzchos.  1.0-m prime focus + CCD.
L34 Galhassin Robotic Telescope, Isnello.  Observer A. Nastasi.  0.40-m f/3.8
    400mm Reflector + CMO.
M38 Harsona Observatory, Nyiregyhaza.  Observer T. Elek.  0.20-m f/3 reflector
    + CCD.
M45 Starhopper Observatory, Sfantu Gheorghe.  Observer F. Ursache.  0.41-m
    f/7.5 reflector + CMO.
P13 Baihuashan Observatory, Beijing.  Observers Z. Wang, B. Liu.  Measurer Z.
    Wang.  0.28-m f/2.2 reflector + CMO.
Orbital elements:
2024 HU1                                                 Earth MOID = 0.0044 AU
Epoch 2024 Mar. 31.0 TT = JDT 2460400.5                 Veres                   
M  23.05887              (2000.0)            P               Q                  
n   0.81530496     Peri.  296.60206     -0.86860609     -0.45449262             
a   1.1348087      Node   217.31325     +0.48367052     -0.86422394             
e   0.1857135      Incl.   19.00322     -0.10763961     -0.21576245             
P   1.21           H   26.17          G   0.15           U   7                  
Residuals in seconds of arc
240429 703  0.2+  0.1-    240429 P13  1.0+  1.6+    240429 M45  0.3-  0.3-
240429 703  1.0+  0.6-    240429 L34  0.1-  0.6-    240429 M45  0.2+  0.6-
240429 703  0.8+  0.0     240429 C75  0.6-  0.6+    240429 G34  0.0   0.2-
240429 H36  0.0   0.5+    240429 104  0.1-  0.8+    240429 M45  0.1-  0.7-
240429 H36  0.2+  0.6+    240429 C75  0.1-  0.6+    240429 G34  0.3+  0.0
240429 H36  0.4-  0.1-    240429 M38  0.1-  1.1+    240429 G34  0.2+  0.4-
240429 I52  0.1-  0.1-    240429 104  0.4-  0.0     240429 L34  0.6-  0.1+
240429 I52  0.1-  0.2-    240429 104  0.1-  0.4+    240429 A71  0.4+  0.4+
240429 I52  0.2-  0.1+    240429 M38  0.0   0.6+    240429 A71  0.2+  0.5+
240429 I52  0.1-  0.0     240429 G02  0.6-  0.3+    240429 A71  0.5+  0.1+
240429 P13  0.1-  0.6+    240429 G02  1.1-  0.0
240429 P13  0.5-  0.2-    240429 G02  0.7-  0.0
Ephemeris:
2024 HU1                 a,e,i = 1.13, 0.19, 19                  q = 0.9241
Date    TT    R. A. (2000) Decl.     Delta      r    Elong.  Phase     V
2024 03 30    03 54 40.8 -48 35 06   0.1739  0.9472    67.9   102.3    26.0
...
2024 04 14    04 12 53.2 -50 37 47   0.08370 0.9770    69.7   105.7    24.7
...
2024 04 22    04 48 02.5 -53 02 00   0.03386 0.9966    74.5   103.6    22.6
...
2024 04 28    13 00 37.8 +13 52 17   0.0070771.0126   145.5    34.3    16.9
2024 04 29    14 05 28.1 +32 26 03   0.01214 1.0153   132.9    46.6    18.4
2024 04 30    14 36 54.2 +38 54 28   0.01802 1.0181   126.3    52.9    19.4
...
2024 05 06    15 27 19.4 +46 13 15   0.05537 1.0349   116.8    60.5    22.1
...
2024 05 14    15 39 42.5 +47 01 05   0.1055  1.0584   114.3    60.5    23.6
...
2024 05 29    15 46 13.0 +45 29 34   0.1974  1.1038   112.4    58.1    25.0
M. P. C. Staff               (C) Copyright 2024 MPC           M.P.E.C. 2024-H95
    
    
More information about the Iaude
mailing list